SCP
0 0 0 0 0 0 0 0 0 0 0 0 0 0 0 0 0 0 0 0 0 0 0 0 0 0 0 0 0 0 0 0 0 0 0 0 0 0 0 0 0 0 0
0 0 0 0 0 0 0 0 0 0 0 0 0 0 0 0 0 0 0 0 0 0 0 0 0 0 0 0 0 0 0 0 0 0 0 0 0 0 0 0 0 0 0
0 0 0 0 0 0 0 0 0 0 0 0 0 0 0 0 0 0 0 0 0 0 0 0 0 0 0 0 0 0 0 0 0 0 0 0 0 0 0 0 0 0 0
0 0 0 0 0 0 0 0 0 0 0 0 0 0 0 0 0 0 0 0 0 0 0 0 0 0 0 0 0 0 0 0 0 0 0 0 0 0 0 0 0 0 0
0 0 0 0 0 0 0 0 0 0 0 0 0 0 0 0 0 0 0 0 0 0 0 0 0 0 0 0 0 0 0 0 0 0 0 0 0 0 0 0 0 0 0
0 0 0 0 0 0 0 0 0 0 0 0 0 0 0 0 0 0 0 0 0 0 0 0 0 0 0 0 0 0 0 0 0 0 0 0 0 0 0 0 0 0 0
0 0 0 0 0 0 0 0 0 0 0 0 0 0 0 0 0 0 0 0 0 0 0 0 0 0 0 0 0 0 0 0 0 0 0 0 0 0 0 0 0 0 0
0 0 0 0 0 0 0 0 0 0 0 0 0 0 0 0 0 0 0 0 0 0 0 0 0 0 0 0 0 0 0 0 0 0 0 0 0 0 0 0 0 0 0
0 0 0 0 0 0 0 0 0 0 0 0 0 0 0 0 0 0 0 0 0 0 0 0 0 0 0 0 0 0 0 0 0 0 0 0 0 0 0 0 0 0 0
0 0 0 0 0 0 0 0 0 0 0 0 0 0 0 0 0 0 0 0 0 0 0 0 0 0 0 0 0 0 0 0 0 0 0 0 0 0 0 0 0 0 0
0 0 0 0 0 0 0 0 0 0 0 0 0 0 0 0 0 0 0 0 0 0 0 0 0 0 0 0 0 0 0 0 0 0 0 0 0 0 0 0 0 0 0
0 0 0 0 0 0 0 0 0 0 0 0 0 0 0 0 0 0 0 0 0 0 0 0 0 0 0 0 0 0 0 0 0 0 0 0 0 0 0 0 0 0 0
0 0 0 0 0 0 0 0 0 0 0 0 0 0 0 0 0 0 0 0 0 0 0 0 0 0 0 0 0 0 0 0 0 0 0 0 0 0 0 0 0 0 0
0 0 0 0 0 0 0 0 0 0 0 0 0 0 0 0 0 0 0 0 0 0 0 0 0 0 0 0 0 0 0 0 0 0 0 0 0 0 0 0 0 0 0
0 0 0 0 0 0 0 0 0 0 0 0 0 0 0 0 0 0 0 0 0 0 0 0 0 0 -0 -0 -0 -0 0 0 0 0 0 0 0 0 0 0 0 0 0
0 0 0 0 0 0 0 0 0 0 0 0 0 0 0 0 0 0 0 0 0 0 0 0 0 0 -0 -0 -0 -0 0 0 0 0 0 0 0 0 0 0 0 0 0
0 0 0 0 0 0 0 0 0 0 0 0 0 0 0 0 0 0 0 0 0 0 0 0 0 0 0 0 0 0 0 0 0 0 0 0 0 0 0 0 0 0 0
0 0 0 0 0 0 0 0 0 0 0 0 0 0 0 0 0 0 0 0 0 0 0 0 0 0 0 0 0 0 0 0 0 0 0 0 0 0 0 0 0 0 0
0 0 0 0 0 0 0 0 0 0 0 0 0 0 0 0 0 0 0 0 0 0 0 0 0 0 0 0 0 0 0 0 0 0 0 0 0 0 0 0 0 0 0
0 0 0 0 0 0 0 0 0 0 0 0 0 0 0 -0 -0 -0 -0 0 0 0 0 0 0 0 0 0 0 0 0 0 0 0 0 0 0 0 0 0 0 0 0
0 0 0 0 0 0 0 0 0 0 0 0 0 0 -0 -0 -0 -0 -0 0 0 0 0 0 0 0 0 0 0 0 0 0 0 0 0 0 0 0 0 0 0 0 0
0 0 0 0 0 0 0 0 0 0 0 0 0 0 -0 -0 -0 -0 -0 -0 -0 -0 -0 0 0 0 0 0 0 0 0 0 0 0 0 0 0 0 0 0 0 0 0
0 0 0 0 0 0 0 0 0 0 0 0 0 -0 -0 -0 0 0 -0 0 0 0 0 0 0 0 0 0 0 0 0 0 0 0 0 0 0 0 0 0 0 0 0
0 0 0 0 0 0 0 0 0 0 0 0 0 -0 -0 -0 0 0 0 0 0 0 0 0 0 0 0 0 0 0 0 0 0 0 0 0 0 0 0 0 0 0 0
0 0 0 0 0 0 0 0 0 0 0 0 0 0 0 0 0 0 0 0 0 0 0 0 0 0 0 0 0 0 0 0 0 0 0 0 0 0 0 0 0 0 0
0 0 0 0 0 0 0 0 0 0 0 0 0 0 0 0 0 0 0 0 0 0 0 0 0 0 0 0 0 0 0 0 0 0 0 0 0 0 0 0 0 0 0
Wind_Speed
2 2 2 2 2 2 2 2 3 5 5 5 5 5 5 6 6 6 4 11 12 12 12 12 12 12 12 12 11 11 10 9 8 7 7 6 6 6 6 5 5 5 4
2 3 3 2 2 2 2 2 4 4 4 5 6 6 6 5 6 6 5 7 12 13 13 13 13 13 13 13 12 12 11 10 9 9 8 7 7 6 6 6 6 6 5
4 3 3 2 2 2 3 3 4 4 4 5 5 5 5 5 5 5 5 4 5 11 13 14 14 14 14 14 14 13 12 11 10 9 9 8 8 7 6 6 6 6 6
4 3 3 2 2 3 3 3 4 4 4 4 4 4 4 4 6 5 5 4 4 5 8 13 14 15 15 15 15 14 13 12 11 10 10 9 9 8 8 7 7 6 6
5 4 3 3 4 3 3 4 4 3 3 3 4 4 4 5 5 6 6 5 5 5 4 8 13 14 15 15 15 14 13 13 12 11 10 10 9 9 8 8 7 7 7
4 4 2 4 4 4 3 3 3 3 3 3 5 5 4 4 4 5 5 5 5 6 5 5 5 8 14 15 15 15 14 12 12 12 11 10 9 9 8 8 8 8 7
4 4 3 4 4 4 3 4 3 3 2 2 3 3 4 4 5 4 4 4 5 5 5 6 4 4 5 12 14 15 14 13 12 12 11 11 10 9 9 9 9 9 8
5 4 4 3 4 3 4 4 3 2 1 1 2 2 2 3 4 4 4 4 5 4 5 7 6 6 5 4 9 15 14 13 12 12 12 11 11 10 10 9 9 10 9
5 5 4 3 3 3 3 2 2 2 1 1 2 2 2 2 1 3 4 4 4 4 4 4 6 6 7 6 6 11 15 15 13 12 12 11 11 12 12 11 11 11 10
4 4 4 4 3 3 3 2 3 1 2 1 1 2 2 3 2 1 2 3 4 4 4 5 6 6 6 5 8 13 15 15 15 14 12 12 12 12 12 12 11 11 11
3 3 3 3 3 3 3 4 3 3 2 2 1 1 2 1 2 3 2 1 2 3 3 4 4 5 5 5 5 10 14 15 15 15 14 13 12 12 12 13 12 11 11
2 3 3 3 4 3 4 3 3 3 3 3 2 2 2 2 1 2 2 1 2 1 3 3 3 3 4 4 7 12 13 14 14 15 14 14 13 12 12 12 13 13 12
2 2 3 3 3 3 4 3 3 3 3 3 4 3 3 3 2 2 3 2 1 1 2 2 2 2 3 3 4 9 11 12 13 13 14 14 13 13 13 12 12 12 13
2 3 3 4 4 3 4 3 3 3 3 4 4 4 3 3 3 2 2 2 2 1 2 2 2 2 2 2 4 5 6 10 10 11 12 13 13 13 13 13 12 12 12
3 3 3 3 3 3 3 3 3 3 3 3 3 3 3 2 3 3 2 2 2 2 1 1 1 1 1 2 3 3 3 7 9 9 10 11 11 11 12 12 11 11 11
3 2 3 3 3 3 3 4 3 2 4 3 3 4 3 2 3 2 2 2 2 2 1 0 1 1 1 2 4 3 3 6 7 7 8 8 9 9 10 10 10 11 10
3 2 2 3 3 3 3 2 2 2 2 2 3 4 4 3 2 2 2 2 2 3 3 0 1 1 2 2 2 1 1 1 2 5 5 6 7 7 8 8 9 9 10
2 2 2 2 3 3 3 3 2 2 2 3 3 4 3 3 3 3 2 2 2 2 3 2 1 1 1 1 1 1 1 2 1 2 3 4 5 5 6 6 7 7 9
3 2 3 3 3 3 3 3 2 1 2 2 3 3 3 3 2 2 2 2 2 2 2 2 1 0 0 1 1 1 1 1 0 2 2 2 2 2 3 4 5 6 7
3 3 3 3 3 3 3 2 2 2 2 3 3 3 3 3 3 2 2 2 2 2 2 1 1 0 0 0 1 1 2 2 2 0 1 1 1 1 1 2 2 3 5
3 3 3 3 3 3 3 3 2 2 2 2 3 4 4 6 7 4 3 2 2 1 1 1 0 1 0 1 1 1 1 2 2 0 0 1 0 0 0 0 0 1 2
3 3 3 3 3 3 4 5 3 2 1 2 2 3 4 5 6 6 6 5 3 2 1 0 0 0 1 1 1 1 1 1 2 2 1 2 1 1 1 1 2 2 2
3 3 3 4 4 3 4 3 3 2 1 1 1 2 2 4 4 3 3 3 3 2 0 1 0 1 1 1 1 1 1 1 2 2 1 2 1 1 2 2 4 4 4
4 3 3 4 4 4 4 2 0 1 1 0 1 2 3 3 2 2 2 1 1 1 1 1 0 1 1 1 0 1 1 2 2 2 0 2 2 2 2 2 5 5 5
4 4 4 4 4 4 5 4 2 1 1 1 1 1 2 3 3 3 2 1 0 1 1 1 0 1 1 2 1 1 1 1 2 3 1 1 2 2 2 2 4 6 6
4 4 4 4 4 4 6 6 5 1 1 1 1 1 2 2 3 4 2 1 1 2 1 1 2 3 3 3 3 2 2 1 2 3 2 1 2 2 3 3 2 2 3
Wind_Direction
53 61 71 49 50 60 54 41 51 53 41 43 57 60 62 72 82 86 75 69 67 65 65 64 63 62 57 53 51 50 49 47 48 49 49 47 42 43 47 47 52 52 51
54 60 69 62 62 57 53 59 71 72 59 50 50 51 48 62 78 91 94 74 69 68 65 62 61 59 56 53 51 49 48 47 48 51 50 48 44 43 46 48 50 47 44
51 49 52 53 67 61 56 52 62 66 73 66 55 55 48 48 68 79 88 91 76 67 66 63 60 57 53 52 50 49 48 46 46 47 48 48 48 48 53 55 54 48 43
64 50 43 44 73 74 67 62 62 64 64 64 56 52 49 40 53 65 71 73 79 77 67 66 59 56 52 50 48 47 47 46 45 47 49 49 50 51 55 57 55 48 43
55 60 36 28 57 58 56 68 58 66 78 78 77 62 52 44 42 54 62 62 71 82 77 68 63 56 51 48 46 44 44 44 44 45 47 47 49 51 52 54 50 46 39
42 54 50 44 52 59 59 70 70 62 69 73 80 69 57 57 51 46 50 52 56 72 75 73 67 59 54 46 41 40 39 40 42 44 45 47 48 52 52 52 48 45 41
38 51 49 52 56 61 67 77 74 75 70 91 89 73 52 52 64 53 45 48 51 50 56 60 53 54 53 46 37 35 35 36 38 42 46 47 50 52 54 53 51 48 45
28 44 55 67 67 63 62 69 73 65 56 61 91 106 93 36 33 47 52 52 51 42 47 54 51 52 49 41 34 33 30 29 36 42 47 48 50 50 51 52 52 50 46
34 25 40 61 81 87 78 76 86 76 58 24 54 86 109 105 68 18 47 59 54 44 42 44 50 50 52 43 30 28 31 30 36 44 49 50 50 49 49 49 49 49 48
49 27 30 44 63 75 79 69 83 66 73 49 19 29 84 131 130 102 28 49 57 52 47 50 48 49 50 49 43 36 36 35 39 44 47 50 50 50 50 49 49 49 49
66 47 38 43 61 71 68 62 59 43 53 64 55 38 42 53 88 117 110 53 48 45 51 55 55 51 47 48 48 41 40 38 39 41 44 47 49 50 51 49 48 49 48
69 62 55 51 53 63 59 59 71 56 52 51 48 52 59 66 76 93 113 116 90 55 58 58 61 58 56 51 50 46 44 41 40 41 41 42 45 46 47 48 48 47 48
93 73 66 63 58 60 60 50 60 76 69 60 58 49 44 51 64 79 102 110 105 104 72 49 56 63 66 64 50 48 48 45 41 41 40 40 41 43 43 45 45 45 46
111 103 80 75 66 65 65 50 47 47 66 69 66 58 51 44 55 74 100 109 89 61 67 69 46 53 59 65 48 44 49 49 45 45 43 41 40 43 44 45 44 43 41
107 105 105 99 84 70 67 63 58 51 49 55 66 69 68 53 47 47 58 94 123 117 56 61 67 40 68 69 42 60 65 54 51 49 46 43 42 42 42 42 41 39 37
104 118 132 126 115 96 75 64 59 63 75 62 59 61 58 59 51 44 41 35 57 108 109 42 101 124 65 78 64 59 74 65 58 55 50 45 44 42 41 40 40 38 35
134 141 118 112 113 109 99 87 82 74 89 89 84 77 61 56 56 40 43 44 42 81 105 67 77 99 75 65 50 32 84 85 62 61 61 59 52 44 39 37 37 36 34
135 128 107 96 96 101 103 97 78 67 79 82 87 91 80 68 57 43 45 44 40 65 112 114 73 59 80 90 58 358 27 75 93 87 82 74 59 48 39 36 37 36 33
141 133 118 105 92 90 90 94 99 90 91 88 85 96 104 94 76 56 53 48 36 52 76 109 140 75 71 85 48 359 8 353 334 138 127 99 82 59 45 42 42 36 33
141 131 117 110 102 90 79 80 88 83 86 93 92 83 79 82 78 69 67 54 53 54 54 73 94 127 130 348 74 357 336 315 310 23 58 119 158 150 95 61 44 35 32
140 131 119 112 105 98 65 49 50 73 86 93 90 87 81 80 71 61 59 48 50 48 50 63 75 44 11 20 318 282 297 296 303 281 320 272 243 270 227 52 15 19 18
138 123 124 119 108 95 84 62 39 13 68 98 112 120 114 96 80 72 63 63 69 69 67 74 169 185 259 249 275 310 323 346 310 301 14 296 257 258 241 209 207 209 263
146 136 139 132 128 123 115 88 35 354 337 123 136 139 123 116 116 106 74 51 35 24 11 170 234 245 249 255 235 303 312 292 257 260 3 295 285 268 256 227 212 225 244
150 159 162 149 139 143 146 137 93 300 313 18 108 128 130 136 135 131 142 105 19 347 331 46 114 293 330 345 345 222 244 303 297 296 215 276 286 273 274 253 232 234 246
159 172 174 163 158 161 169 165 148 233 263 260 204 134 136 143 145 131 133 154 246 293 328 32 275 264 314 338 357 32 352 340 303 289 267 243 278 289 282 266 247 240 253
166 172 178 178 174 171 178 179 177 191 233 243 222 160 136 148 152 152 166 194 230 246 250 292 288 286 281 284 275 215 213 234 271 287 272 247 282 314 307 284 267 263 262